OneWeb SL0507

operational
NORAD ID: 54125 Int'l Des: 2022-138 Owner: ONEWEBN Country: UK Constellation: oneweb
LEOCIRCULARPOLARONEWEB_TYPE

About OneWeb SL0507

Description loading...

Live Position

Loading 3D Globe...

Upcoming Passes

Altitude History

Altitude vs Time

uPlot chart will show altitude changes over time

Two-Line Element Set

1 54125U 22138N 26094.88134558 .00000016 00000-0 87931-5 0 9996
2 54125 87.9182 319.5938 0001960 85.2629 274.8727 13.19725907167184
Epoch: Apr 4, 2026 • Age: 7 hours

Current Status

Altitude 1187.8 km
Velocity 7.26 km/s
Sub-Earth Point 22.63°N, 58.73°E
Launch Date Oct 22, 2022
Age 3.4 years
Type internet

Technical Details

Classification Payload
Mass 148.00 kg
Dry Mass 140.00 kg
Total Mass 148.00 kg
Length 1.30 m
Diameter 1.00 m
Span 5.00 m
Shape Trapezoid+2 pan
Manufacturer ONEWUS
Bus Type ARROW
Phase Status In Orbit
Owner/State ONEWEBN/UK

Large Constellations

Loading constellations...